Volver al catálogo

USA 578

ActivoMilitarVLEO
NORAD 67490·PAYLOAD·🇺🇸 United States

Lanzado Jan 17, 2026 desde Vandenberg Space Force Base

Loading…

Próximos Pases (próximas 24 horas)

TLE

ObsoletoSource: Mike McCants

Época: Aug 1, 2026, 21:08 UTC

1 67490U 26011G   26213.88062938 0.00000000  00000-0  00000-0 0    07
2 67490  70.0210 122.4070 0003000 297.1438  62.8562 14.96713562    04

Sigue USA 578 en tiempo real con AllMySat

Download on the App Store